Location: Dal�� Lhota
(48.7500°N, 14.0167°E)
Time: 07:42:50
(UTC+00:00)

Transit 2A - Pass Details

Date: 31 July 2021
Orbit: 594 x 964 km, 66.7° (Epoch: 24 September)

Event Time Altitude Azimuth Distance (km) Brightness Sun altitude
Rises 04:06:48 0° 154° (SSE) 2,831 9.0 3.6°
Reaches altitude 10° 04:10:54 10° 115° (ESE) 1,974 8.9 4.3°
Maximum altitude 04:11:50 11° 103° (ESE) 1,949 9.1 4.4°
Drops below altitude 10° 04:12:46 10° 91° (E) 2,003 9.6 4.5°
Sets 04:17:04 0° 53° (NE) 2,998 11.0 5.2°
